| time (UTC) | temp C | wind direction | speed KPH | gust KPH | rain 1hr cm | rain 24hr cm | rain mn cm | humidity % | barometer mb |
| 20260831141606 | 28 | 96 | 4.8 | 16.1 | 0.00 | 0.00 | 0.00 | 57 | 1019.6 |
| 20260831140054 | 28 | 11 | 4.8 | 17.7 | 0.00 | 0.00 | 0.00 | 56 | 1019.7 |
| 20260831134604 | 28 | 147 | 8.0 | 17.7 | 0.00 | 0.00 | 0.00 | 54 | 1019.7 |
| 20260831133101 | 28 | 140 | 8.0 | 22.5 | 0.00 | 0.00 | 0.00 | 54 | 1019.7 |
| 20260831131603 | 28 | 125 | 9.7 | 17.7 | 0.00 | 0.00 | 0.00 | 52 | 1019.8 |
| 20260831130109 | 29 | 92 | 6.4 | 17.7 | 0.00 | 0.00 | 0.00 | 51 | 1019.9 |
| 20260831124600 | 29 | 132 | 8.0 | 17.7 | 0.00 | 0.00 | 0.00 | 47 | 1019.9 |
| 20260831123058 | 29 | 143 | 4.8 | 17.7 | 0.00 | 0.00 | 0.00 | 48 | 1019.9 |
| 20260831121559 | 29 | 132 | 8.0 | 19.3 | 0.00 | 0.00 | 0.00 | 46 | 1019.9 |
| 20260831120057 | 30 | 128 | 6.4 | 17.7 | 0.00 | 0.00 | 0.00 | 46 | 1020.0 |
| 20260831114606 | 30 | 128 | 8.0 | 17.7 | 0.00 | 0.00 | 0.00 | 45 | 1019.9 |
| 20260831113057 | 30 | 0 | 3.2 | 14.5 | 0.00 | 0.00 | 0.00 | 42 | 1019.9 |
| 20260831111605 | 30 | 108 | 3.2 | 12.9 | 0.00 | 0.00 | 0.00 | 42 | 1020.0 |
| 20260831110058 | 30 | 163 | 6.4 | 17.7 | 0.00 | 0.00 | 0.00 | 41 | 1020.1 |
| 20260831104556 | 30 | 220 | 1.6 | 11.3 | 0.00 | 0.00 | 0.00 | 42 | 1020.0 |
| 20260831103053 | 29 | 140 | 1.6 | 11.3 | 0.00 | 0.00 | 0.00 | 40 | 1020.1 |
| 20260831101552 | 28 | 109 | 3.2 | 12.9 | 0.00 | 0.00 | 0.00 | 41 | 1020.2 |
| 20260831100116 | 29 | 138 | 3.2 | 11.3 | 0.00 | 0.00 | 0.00 | 42 | 1020.2 |
| 20260831094603 | 29 | 312 | 3.2 | 12.9 | 0.00 | 0.00 | 0.00 | 41 | 1020.3 |
| 20260831093121 | 29 | 17 | 1.6 | 8.0 | 0.00 | 0.00 | 0.00 | 42 | 1020.4 |
| 20260831091605 | 28 | 0 | 1.6 | 6.4 | 0.00 | 0.00 | 0.00 | 44 | 1020.4 |
| 20260831090131 | 27 | 0 | 0.0 | 4.8 | 0.00 | 0.00 | 0.00 | 46 | 1020.5 |
| 20260831084604 | 27 | 103 | 1.6 | 6.4 | 0.00 | 0.00 | 0.00 | 46 | 1020.6 |
| 20260831083112 | 26 | 0 | 1.6 | 6.4 | 0.00 | 0.00 | 0.00 | 47 | 1020.4 |
| 20260831081603 | 26 | 123 | 0.0 | 4.8 | 0.00 | 0.00 | 0.00 | 50 | 1020.3 |
| 20260831080129 | 25 | 0 | 1.6 | 4.8 | 0.00 | 0.00 | 0.00 | 52 | 1020.2 |
| 20260831074555 | 25 | 5 | 0.0 | 4.8 | 0.00 | 0.00 | 0.00 | 53 | 1020.2 |
| 20260831073102 | 24 | 0 | 0.0 | 3.2 | 0.00 | 0.00 | 0.00 | 55 | 1020.0 |
| 20260831071604 | 23 | 0 | 0.0 | 3.2 | 0.00 | 0.00 | 0.00 | 58 | 1020.0 |
| 20260831070104 | 22 | 0 | 0.0 | 3.2 | 0.00 | 0.00 | 0.00 | 61 | 1020.0 |
| 20260831064554 | 21 | 0 | 0.0 | 0.0 | 0.00 | 0.00 | 0.00 | 65 | 1019.9 |
| 20260831063108 | 21 | 0 | 0.0 | 3.2 | 0.00 | 0.00 | 0.00 | 66 | 1019.9 |
| 20260831061603 | 20 | 0 | 0.0 | 1.6 | 0.00 | 0.00 | 0.00 | 67 | 1020.0 |
| 20260831060105 | 19 | 323 | 0.0 | 3.2 | 0.00 | 0.00 | 0.00 | 70 | 1019.9 |
| 20260831054604 | 19 | 0 | 0.0 | 0.0 | 0.00 | 0.00 | 0.00 | 69 | 1019.9 |
| 20260831053132 | 18 | 0 | 0.0 | 1.6 | 0.00 | 0.00 | 0.00 | 69 | 1019.9 |
| 20260831051600 | 18 | 0 | 0.0 | 3.2 | 0.00 | 0.00 | 0.00 | 68 | 1019.8 |
| 20260831050058 | 18 | 0 | 0.0 | 1.6 | 0.00 | 0.00 | 0.00 | 67 | 1019.6 |
| 20260831044643 | 18 | 0 | 0.0 | 3.2 | 0.00 | 0.00 | 0.00 | 67 | 1019.7 |
| 20260831043105 | 18 | 0 | 0.0 | 1.6 | 0.00 | 0.00 | 0.00 | 68 | 1019.6 |
| 20260831041603 | 18 | 0 | 0.0 | 3.2 | 0.00 | 0.00 | 0.00 | 68 | 1019.6 |
| 20260831040056 | 18 | 0 | 0.0 | 3.2 | 0.00 | 0.00 | 0.00 | 68 | 1019.7 |
| 20260831034609 | 18 | 0 | 0.0 | 1.6 | 0.00 | 0.00 | 0.00 | 68 | 1019.8 |
| 20260831033111 | 18 | 0 | 0.0 | 1.6 | 0.00 | 0.00 | 0.00 | 68 | 1019.7 |
| 20260831031600 | 18 | 0 | 0.0 | 0.0 | 0.00 | 0.00 | 0.00 | 69 | 1019.9 |
| 20260831030056 | 18 | 0 | 0.0 | 0.0 | 0.00 | 0.00 | 0.00 | 68 | 1019.9 |
| 20260831024553 | 18 | 0 | 0.0 | 0.0 | 0.00 | 0.00 | 0.00 | 69 | 1019.9 |
| 20260831023107 | 18 | 360 | 0.0 | 1.6 | 0.00 | 0.00 | 0.00 | 68 | 1020.0 |
| 20260831021601 | 19 | 0 | 0.0 | 1.6 | 0.00 | 0.00 | 0.00 | 68 | 1020.1 |
| 20260831014553 | 19 | 360 | 3.2 | 4.8 | 0.00 | 0.00 | 0.00 | 69 | 1020.2 |
| 20260831013102 | 19 | 0 | 0.0 | 3.2 | 0.00 | 0.00 | 0.00 | 68 | 1020.2 |
| 20260831011559 | 19 | 360 | 3.2 | 6.4 | 0.00 | 0.00 | 0.00 | 68 | 1020.0 |
| 20260831010107 | 19 | 360 | 3.2 | 6.4 | 0.00 | 0.00 | 0.00 | 69 | 1020.1 |
| 20260831004612 | 19 | 360 | 3.2 | 4.8 | 0.00 | 0.00 | 0.00 | 69 | 1020.2 |
| 20260831003109 | 19 | 360 | 1.6 | 4.8 | 0.00 | 0.00 | 0.00 | 69 | 1020.3 |
| 20260831001600 | 19 | 0 | 0.0 | 0.0 | 0.00 | 0.00 | 0.00 | 69 | 1020.2 |
| 20260831000110 | 19 | 0 | 0.0 | 0.0 | 0.00 | 0.00 | 0.00 | 69 | 1020.4 |
| 20260830234624 | 19 | 0 | 0.0 | 0.0 | 0.00 | 0.00 | 0.00 | 69 | 1020.3 |
| 20260830233104 | 19 | 0 | 0.0 | 8.0 | 0.00 | 0.00 | 0.00 | 70 | 1020.3 |
| 20260830231607 | 19 | 360 | 1.6 | 4.8 | 0.00 | 0.00 | 0.00 | 70 | 1020.3 |
| 20260830230059 | 20 | 0 | 0.0 | 6.4 | 0.00 | 0.00 | 0.00 | 69 | 1020.4 |
| 20260830224559 | 20 | 360 | 3.2 | 6.4 | 0.00 | 0.00 | 0.00 | 69 | 1020.2 |
| 20260830223057 | 20 | 360 | 0.0 | 4.8 | 0.00 | 0.00 | 0.00 | 68 | 1020.3 |
| 20260830221553 | 20 | 0 | 0.0 | 4.8 | 0.00 | 0.00 | 0.00 | 67 | 1020.3 |
| 20260830220106 | 20 | 360 | 1.6 | 6.4 | 0.00 | 0.00 | 0.00 | 66 | 1020.2 |
| 20260830214602 | 21 | 360 | 3.2 | 8.0 | 0.00 | 0.00 | 0.00 | 66 | 1020.2 |
| 20260830213107 | 21 | 360 | 3.2 | 8.0 | 0.00 | 0.00 | 0.00 | 65 | 1020.2 |
| 20260830211606 | 21 | 360 | 1.6 | 6.4 | 0.00 | 0.00 | 0.00 | 65 | 1020.2 |
| 20260830210103 | 21 | 350 | 3.2 | 6.4 | 0.00 | 0.00 | 0.00 | 64 | 1020.1 |
| 20260830204558 | 21 | 360 | 0.0 | 6.4 | 0.00 | 0.00 | 0.00 | 62 | 1020.1 |
| 20260830203101 | 21 | 0 | 0.0 | 3.2 | 0.00 | 0.00 | 0.00 | 61 | 1020.1 |
| 20260830201606 | 21 | 0 | 1.6 | 8.0 | 0.00 | 0.00 | 0.00 | 61 | 1020.1 |
| 20260830200106 | 22 | 21 | 1.6 | 4.8 | 0.00 | 0.00 | 0.00 | 60 | 1020.2 |
| 20260830194602 | 22 | 297 | 3.2 | 6.4 | 0.00 | 0.00 | 0.00 | 59 | 1020.2 |
| 20260830193056 | 22 | 348 | 0.0 | 4.8 | 0.00 | 0.00 | 0.00 | 58 | 1020.2 |
| 20260830191555 | 22 | 207 | 0.0 | 8.0 | 0.00 | 0.00 | 0.00 | 58 | 1020.2 |
| 20260830184601 | 23 | 325 | 4.8 | 9.7 | 0.00 | 0.00 | 0.00 | 56 | 1020.1 |
| 20260830183103 | 23 | 318 | 4.8 | 9.7 | 0.00 | 0.00 | 0.00 | 55 | 1019.9 |
| 20260830181600 | 23 | 318 | 4.8 | 8.0 | 0.00 | 0.00 | 0.00 | 54 | 1019.7 |
| 20260830180108 | 23 | 327 | 4.8 | 8.0 | 0.00 | 0.00 | 0.00 | 53 | 1019.5 |
| 20260830174617 | 24 | 325 | 3.2 | 6.4 | 0.00 | 0.00 | 0.00 | 52 | 1019.4 |
| 20260830173108 | 25 | 315 | 3.2 | 9.7 | 0.00 | 0.00 | 0.00 | 49 | 1019.2 |
| 20260830171609 | 26 | 324 | 4.8 | 9.7 | 0.00 | 0.00 | 0.00 | 47 | 1019.1 |
| 20260830170110 | 26 | 355 | 3.2 | 9.7 | 0.00 | 0.00 | 0.00 | 46 | 1019.1 |
| 20260830164604 | 26 | 297 | 3.2 | 8.0 | 0.00 | 0.00 | 0.00 | 45 | 1019.2 |
| 20260830163107 | 27 | 28 | 3.2 | 8.0 | 0.00 | 0.00 | 0.00 | 40 | 1019.0 |
| 20260830161622 | 29 | 319 | 1.6 | 6.4 | 0.00 | 0.00 | 0.00 | 33 | 1018.9 |
| 20260830160104 | 30 | 0 | 0.0 | 8.0 | 0.00 | 0.00 | 0.00 | 29 | 1018.9 |
| 20260830154601 | 31 | 152 | 3.2 | 8.0 | 0.00 | 0.00 | 0.00 | 27 | 1018.9 |
| 20260830153055 | 32 | 0 | 0.0 | 11.3 | 0.00 | 0.00 | 0.00 | 26 | 1018.9 |
| 20260830151559 | 32 | 111 | 0.0 | 3.2 | 0.00 | 0.00 | 0.00 | 26 | 1018.8 |
| 20260830150121 | 31 | 0 | 0.0 | 11.3 | 0.00 | 0.00 | 0.00 | 26 | 1019.0 |
| 20260830144555 | 31 | 190 | 0.0 | 11.3 | 0.00 | 0.00 | 0.00 | 27 | 1019.0 |
| 20260830143105 | 31 | 184 | 4.8 | 11.3 | 0.00 | 0.00 | 0.00 | 26 | 1019.1 |